Orange, MA

6:34 AM EDT on May 26, 2017 (GMT -0400)
Orange Municipal

Weather History for KORE - December, 2014

Change the Weather History Date:

Wednesday, December 10, 2014

  Actual Average Record
Temperature  
Mean Temperature 35 °F -  
Max Temperature 37 °F 37 °F 57 °F (2008)
Min Temperature 33 °F 19 °F 0 °F (2010)
Degree Days  
Heating Degree Days 30    
Moisture  
Dew Point 34 °F    
Average Humidity 95    
Maximum Humidity 100    
Minimum Humidity 92    
Precipitation  
Precipitation 0.28 in - - ()
Sea Level Pressure  
Sea Level Pressure 29.53 in    
Wind  
Wind Speed 9 mph (NNW)    
Max Wind Speed 13 mph    
Max Gust Speed -    
Visibility 4 miles    
Events Rain , Snow    
Averages and records for this station are not official NWS values.
T = Trace of Precipitation, MM = Missing Value Source: NWS Daily Summary

Daily Weather History Graph

Daily Weather History Graph

Search for Another Location

Airport or City:

Trip Planner

Search our weather history database for the weather conditions in past years. The results will help you decide how hot, cold, wet, or windy it might be!

Date:

Astronomy

Dec. 10, 2014 Rise Set
Actual Time 7:08 AM EST 4:15 PM EST
Civil Twilight 6:36 AM EST 4:47 PM EST
Nautical Twilight 6:00 AM EST 5:23 PM EST
Astronomical Twilight 5:26 AM EST 5:57 PM EST
Moon 8:31 PM EST (12/10) 9:53 AM EST (12/10)
Length of Visible Light 10h 11m
Length of Day
9h 07m
Waning Gibbous, 83% of the Moon is Illuminated
Dec 10
Waning Gibbous
Dec 14
Last Quarter
Dec 21
New
Dec 28
First Quarter
Jan 4
Full

Hourly Weather History & Observations

Time (EST) Temp. Windchill Dew Point Humidity Pressure Visibility Wind Dir Wind Speed Gust Speed Precip Events Conditions
12:52 AM 36.0 °F 28.0 °F 34.0 °F 93% 29.60 in 5.0 mi NNW 11.5 mph - 0.00 in Rain Light Rain
1:40 AM 36.0 °F 28.5 °F 34.0 °F 93% 29.59 in 4.0 mi NNW 10.4 mph - 0.00 in Rain Light Rain
1:49 AM 35.6 °F 27.5 °F 33.8 °F 93% 29.58 in 5.0 mi NNW 11.5 mph - 0.00 in Rain Light Rain
1:52 AM 36.0 °F 27.5 °F 34.0 °F 93% 29.59 in 5.0 mi NNW 12.7 mph - 0.00 in Rain Light Rain
2:52 AM 36.0 °F 29.0 °F 34.0 °F 93% 29.61 in 4.0 mi North 9.2 mph - 0.00 in Rain Light Rain
3:11 AM 36.0 °F 29.0 °F 34.0 °F 93% 29.60 in 4.0 mi NNW 9.2 mph - 0.00 in Rain Light Rain
3:52 AM 36.0 °F 29.6 °F 34.0 °F 93% 29.60 in 4.0 mi NNW 8.1 mph - 0.01 in Rain Light Rain
4:52 AM 36.0 °F 28.5 °F 34.0 °F 93% 29.57 in 5.0 mi North 10.4 mph - 0.00 in   Overcast
5:52 AM 35.1 °F 27.4 °F 34.0 °F 96% 29.61 in 3.0 mi NNW 10.4 mph - 0.01 in Rain Light Rain
6:36 AM 36.0 °F 29.0 °F 34.0 °F 93% 29.57 in 4.0 mi NNW 9.2 mph - 0.00 in Rain Light Rain
6:52 AM 35.1 °F 29.3 °F 34.0 °F 96% 29.60 in 4.0 mi NNW 6.9 mph - 0.00 in Rain Light Rain
7:15 AM 35.1 °F 31.0 °F 34.0 °F 96% 29.60 in 2.5 mi North 4.6 mph - 0.00 in Rain Light Rain
7:24 AM 35.1 °F 29.3 °F 34.0 °F 96% 29.59 in 3.0 mi NNW 6.9 mph - 0.01 in Rain Light Rain
7:33 AM 35.1 °F 27.9 °F 34.0 °F 96% 29.57 in 2.5 mi North 9.2 mph - 0.01 in Rain Light Rain
7:52 AM 36.0 °F 28.5 °F 34.0 °F 93% 29.57 in 2.5 mi North 10.4 mph - 0.01 in Rain Light Rain
7:57 AM 36.0 °F 28.5 °F 34.0 °F 93% 29.55 in 3.0 mi North 10.4 mph - 0.00 in Rain Light Rain
8:15 AM 36.0 °F 29.0 °F 34.0 °F 93% 29.55 in 3.0 mi North 9.2 mph - 0.00 in   Overcast
8:52 AM 36.0 °F 29.0 °F 34.0 °F 93% 29.58 in 3.0 mi NNW 9.2 mph - 0.00 in   Overcast
9:03 AM 36.0 °F 29.0 °F 35.1 °F 97% 29.57 in 2.5 mi NNW 9.2 mph - 0.00 in Rain Light Rain
9:52 AM 37.0 °F 31.6 °F 36.0 °F 96% 29.59 in 2.5 mi North 6.9 mph - 0.00 in Rain Light Rain
10:29 AM 37.0 °F 30.4 °F 35.1 °F 93% 29.56 in 2.0 mi NW 9.2 mph - 0.00 in Rain Light Rain
10:38 AM 37.0 °F 28.9 °F 35.1 °F 93% 29.52 in 1.8 mi NNW 12.7 mph - 0.01 in Rain Light Rain
10:48 AM 37.4 °F 30.3 °F 35.6 °F 93% 29.52 in 2.0 mi NNW 10.4 mph - 0.01 in Rain Light Rain
10:52 AM 37.0 °F 32.4 °F 36.0 °F 96% 29.55 in 2.5 mi NNW 5.8 mph - 0.01 in Rain Light Rain
11:04 AM 37.0 °F 31.6 °F 36.0 °F 96% 29.55 in 3.0 mi NNW 6.9 mph - 0.00 in   Overcast
11:20 AM 37.0 °F 31.0 °F 35.1 °F 93% 29.55 in 2.0 mi NNW 8.1 mph - 0.00 in   Overcast
11:39 AM 37.0 °F 31.0 °F 36.0 °F 96% 29.54 in 1.8 mi North 8.1 mph - 0.00 in Rain Light Rain
11:52 AM 37.0 °F 31.6 °F 36.0 °F 96% 29.55 in 2.0 mi NNW 6.9 mph - 0.00 in Rain Light Rain
11:59 AM 37.0 °F 31.0 °F 36.0 °F 96% 29.52 in 2.5 mi NNW 8.1 mph - 0.00 in Rain Light Rain
12:04 PM 36.0 °F 29.6 °F 35.1 °F 97% 29.52 in 3.0 mi NNW 8.1 mph - 0.00 in Rain Light Rain
12:12 PM 37.0 °F 31.6 °F 36.0 °F 96% 29.53 in 2.5 mi NW 6.9 mph - 0.01 in Rain Light Rain
12:21 PM 36.0 °F 30.3 °F 35.1 °F 97% 29.52 in 3.0 mi NW 6.9 mph - 0.02 in Rain Light Rain
12:52 PM 36.0 °F 29.6 °F 35.1 °F 97% 29.52 in 5.0 mi NNW 8.1 mph - 0.05 in Rain Light Rain
1:01 PM 36.0 °F 29.6 °F 35.1 °F 97% 29.50 in 5.0 mi NNW 8.1 mph - 0.00 in Rain Light Rain
1:52 PM 37.0 °F 31.6 °F 35.1 °F 93% 29.50 in 7.0 mi NNW 6.9 mph - 0.02 in Rain Light Rain
2:40 PM 37.0 °F 30.4 °F 35.1 °F 93% 29.46 in 9.0 mi NNW 9.2 mph - 0.02 in Rain Light Rain
2:52 PM 37.0 °F 30.4 °F 35.1 °F 93% 29.48 in 10.0 mi NNW 9.2 mph - 0.03 in Rain Light Rain
3:00 PM 37.0 °F 29.8 °F 35.1 °F 93% 29.46 in 8.0 mi NNW 10.4 mph - 0.00 in Rain Light Rain
3:52 PM 36.0 °F 29.6 °F 34.0 °F 93% 29.48 in 5.0 mi NW 8.1 mph - 0.03 in Rain Light Rain
4:52 PM 35.1 °F 29.3 °F 34.0 °F 96% 29.48 in 10.0 mi NNW 6.9 mph - 0.00 in   Overcast
5:52 PM 35.1 °F 29.3 °F 34.0 °F 96% 29.49 in 3.0 mi WNW 6.9 mph - 0.01 in Rain Light Rain
6:20 PM 35.1 °F 31.0 °F 34.0 °F 96% 29.47 in 2.5 mi NW 4.6 mph - 0.02 in   Overcast
6:38 PM 34.0 °F 28.8 °F 33.1 °F 96% 29.46 in 3.0 mi NW 5.8 mph - 0.03 in Rain Light Rain
6:52 PM 34.0 °F 28.0 °F 33.1 °F 96% 29.48 in 3.0 mi NW 6.9 mph - 0.04 in Rain Light Rain
7:11 PM 34.0 °F 28.8 °F 33.1 °F 96% 29.46 in 4.0 mi NNW 5.8 mph - 0.01 in Snow Light Snow
7:28 PM 34.0 °F 29.8 °F 33.1 °F 96% 29.46 in 3.0 mi NNW 4.6 mph - 0.02 in Snow Light Snow
7:52 PM 33.1 °F 28.7 °F 32.0 °F 96% 29.47 in 6.0 mi NW 4.6 mph - 0.02 in Snow Light Snow
8:48 PM 33.8 °F 28.6 °F 32.0 °F 93% 29.45 in 6.0 mi NW 5.8 mph - 0.01 in   Overcast
8:52 PM 34.0 °F 29.8 °F 32.0 °F 92% 29.47 in 5.0 mi NW 4.6 mph - 0.01 in   Overcast
9:00 PM 34.0 °F 31.0 °F 33.1 °F 96% 29.45 in 4.0 mi NW 3.5 mph - 0.00 in   Overcast
9:52 PM 33.1 °F 30.0 °F 33.1 °F 100% 29.47 in 5.0 mi WNW 3.5 mph - 0.01 in Rain Light Rain
10:52 PM 33.1 °F 30.0 °F 32.0 °F 96% 29.47 in 5.0 mi NW 3.5 mph - 0.01 in   Overcast
11:52 PM 33.1 °F 30.0 °F 32.0 °F 96% 29.47 in 3.0 mi WNW 3.5 mph - 0.01 in Snow Light Snow